(291306) = 2006 BT151

Discovered at Kitt Peak on 2006-01-25 by Spacewatch.

Orbit

Orbit type: Main Belt

Note: WebGL enabled browser required.

epoch2023-09-13.0
epoch JD2460200.5
perihelion date2019-05-22.30976
perihelion JD2458625.80976
argument of perihelion (°)356.18384
ascending node (°)46.99001
inclination (°)2.45380
eccentricity0.0729246
perihelion distance (AU)2.6481797
Tisserand w.r.t. Jupiter3.3
ΔV w.r.t. Earth (km/sec)10.2
semimajor axis (AU)2.8564881
mean anomaly (°)321.47734
mean daily motion (°/day)0.20415270
aphelion distance (AU)3.065
period (years)4.83
P-vector [x]0.72923629
P-vector [y]0.62892609
P-vector [z]0.26956707
Q-vector [x]-0.68354540
Q-vector [y]0.65153701
Q-vector [z]0.32903680
absolute magnitude17.02
phase slope0.15
uncertainty0
referenceMPO 779090
observations used176
oppositions13
arc length (days)6964
first opposition used2004
last opposition used2023
residual rms (arc-secs)0.70
perturbers coarse indicatorM-v
perturbers precise indicator003Ek
first observation date used2004-10-15.0
last observation date used2023-11-09.0
computer nameMPCLINUX
JD of orbit computation2456552.300867
perihelion JD uncertainty (days)2.5217E-04
argument of perihelion uncertainty (°)1.6628E-04
ascending node uncertainty (°)1.5873E-04
inclination uncertainty (°)5.0640E-06
eccentricity uncertainty 8.7098E-08
perihelion distance uncertainty (AU)2.9992E-07
Minimum Orbit Intersection Distances (in AU)
for orbit epoch: 2460200.5, reference: E2023-VG7
Mercury2.32452
Venus1.92538
Earth1.65576
Mars1.13414
Jupiter2.229
Saturn6.31998
Uranus15.4672
Neptune27.1791

Observations

180 total observations over interval: 2004 10 15.35213 – 2023 11 09.297899
These data are available for download (format description).

Date (UT) J2000 RA J2000 Dec Magn Location Ref
2004 10 15.35213 02 38 18.04 +14 32 57.1 20.1 R G96 – Mt. Lemmon Survey MPS 208995
2004 10 15.36000 02 38 17.66 +14 32 55.6 20.2 R G96 – Mt. Lemmon Survey MPS 208995
2004 10 15.36791 02 38 17.30 +14 32 54.1 20.0 R G96 – Mt. Lemmon Survey MPS 208995
2004 10 15.37580 02 38 16.93 +14 32 52.9 20.2 R G96 – Mt. Lemmon Survey MPS 208995
2006 01 25.28733 09 57 13.97 +16 22 16.6   691 – Steward Observatory, Kitt Peak-Spacewatch MPS 162935
2006 01 25.30461 09 57 13.17 +16 22 21.3   691 – Steward Observatory, Kitt Peak-Spacewatch MPS 162935
2006 01 25.32188 09 57 12.38 +16 22 25.8   691 – Steward Observatory, Kitt Peak-Spacewatch MPS 162935
2006 01 31.27978 09 52 35.82 +16 49 09.4 21.7 V 691 – Steward Observatory, Kitt Peak-Spacewatch MPS 162935
2006 01 31.29709 09 52 34.95 +16 49 13.0 21.3 V 691 – Steward Observatory, Kitt Peak-Spacewatch MPS 162935
2006 01 31.31438 09 52 34.08 +16 49 19.2 21.5 V 691 – Steward Observatory, Kitt Peak-Spacewatch MPS 162935
2006 02 04.28559 09 49 15.20 +17 07 25.0 21.1 V 691 – Steward Observatory, Kitt Peak-Spacewatch MPS 162935
2006 02 04.30289 09 49 14.28 +17 07 30.0 20.9 V 691 – Steward Observatory, Kitt Peak-Spacewatch MPS 162935
2006 02 04.32027 09 49 13.36 +17 07 34.7 20.9 V 691 – Steward Observatory, Kitt Peak-Spacewatch MPS 162935
2006 02 24.12020 09 32 06.25 +18 28 18.9 20.8 V 691 – Steward Observatory, Kitt Peak-Spacewatch MPS 163947
2006 02 24.13820 09 32 05.33 +18 28 22.6 20.9 V 691 – Steward Observatory, Kitt Peak-Spacewatch MPS 163947
2006 02 24.15619 09 32 04.47 +18 28 26.3 20.8 V 691 – Steward Observatory, Kitt Peak-Spacewatch MPS 163947
2007 05 09.31397 14 47 23.31 -16 01 18.3 21.4 V G96 – Mt. Lemmon Survey MPS 208995
2007 05 09.32122 14 47 22.92 -16 01 16.6 21.0 V G96 – Mt. Lemmon Survey MPS 208995
2007 05 09.32848 14 47 22.59 -16 01 15.1 20.4 V G96 – Mt. Lemmon Survey MPS 208995
2007 05 09.33572 14 47 22.23 -16 01 14.1 21.1 V G96 – Mt. Lemmon Survey MPS 208995
2007 05 11.28930 14 45 42.87 -15 55 11.1 20.8 V G96 – Mt. Lemmon Survey MPS 208995
2007 05 11.29641 14 45 42.51 -15 55 10.0 20.9 V G96 – Mt. Lemmon Survey MPS 208995
2007 05 11.30348 14 45 42.12 -15 55 08.2 20.8 V G96 – Mt. Lemmon Survey MPS 208995
2007 05 11.31053 14 45 41.76 -15 55 07.2 21.4 V G96 – Mt. Lemmon Survey MPS 208995
2009 10 24.41254 03 59 01.41 +20 46 51.2   691 – Steward Observatory, Kitt Peak-Spacewatch MPS 300723
2009 10 24.42973 03 59 00.74 +20 46 50.4   691 – Steward Observatory, Kitt Peak-Spacewatch MPS 300723
2009 10 24.44691 03 59 00.10 +20 46 49.6   691 – Steward Observatory, Kitt Peak-Spacewatch MPS 300723
2009 11 24.29779 03 32 57.30 +19 54 59.5 20.3 V G96 – Mt. Lemmon Survey MPS 304962
2009 11 24.30948 03 32 56.61 +19 54 57.8 20.3 V G96 – Mt. Lemmon Survey MPS 304962
2009 11 24.31537 03 32 56.29 +19 54 57.1 20.6 V G96 – Mt. Lemmon Survey MPS 304962
2009 12 11.14694 03 19 18.01 +19 19 23.9 21.0 V G96 – Mt. Lemmon Survey MPS 306636
2009 12 11.15223 03 19 17.83 +19 19 23.2 21.2 V G96 – Mt. Lemmon Survey MPS 306636
2009 12 11.15759 03 19 17.61 +19 19 22.4 20.7 V G96 – Mt. Lemmon Survey MPS 306636
2009 12 11.16286 03 19 17.40 +19 19 21.9 20.8 V G96 – Mt. Lemmon Survey MPS 306636
2009 12 17.21392 03 15 44.10 +19 09 51.0 21.2 V G96 – Mt. Lemmon Survey MPS 307325
2009 12 17.22153 03 15 43.88 +19 09 50.6 20.8 V G96 – Mt. Lemmon Survey MPS 307325
2009 12 17.22902 03 15 43.59 +19 09 49.5 20.9 V G96 – Mt. Lemmon Survey MPS 307325
2009 12 17.23667 03 15 43.38 +19 09 49.4 21.6 V G96 – Mt. Lemmon Survey MPS 307325
2011 02 25.29818 10 40 27.58 +12 09 04.5 21.1 V G96 – Mt. Lemmon Survey MPS 371435
2011 02 25.30870 10 40 27.04 +12 09 07.5 20.9 V G96 – Mt. Lemmon Survey MPS 371435
2011 02 25.31917 10 40 26.50 +12 09 11.9 19.5 V G96 – Mt. Lemmon Survey MPS 371435
2011 02 25.32954 10 40 25.93 +12 09 13.0 20.9 V G96 – Mt. Lemmon Survey MPS 371435
2011 03 08.22432 10 31 21.21 +12 57 40.2 22.4 V G96 – Mt. Lemmon Survey MPS 373441
2011 03 08.23193 10 31 20.85 +12 57 42.6 22.4 V G96 – Mt. Lemmon Survey MPS 373441
2011 03 08.23953 10 31 20.49 +12 57 44.8 21.7 V G96 – Mt. Lemmon Survey MPS 373441
2011 03 08.24711 10 31 20.13 +12 57 45.7 22.2 V G96 – Mt. Lemmon Survey MPS 373441
2012 05 20.38208 15 44 11.892 -20 32 58.62 21.1 w F51 – Pan-STARRS 1, Haleakala MPS 425933
2012 05 20.39669 15 44 11.097 -20 32 56.68 21.0 w F51 – Pan-STARRS 1, Haleakala MPS 425933
2012 05 20.41129 15 44 10.290 -20 32 54.70 21.0 w F51 – Pan-STARRS 1, Haleakala MPS 425933
2013 08 09.45171 22 09 43.582 -15 23 06.18 20.8 w F51 – Pan-STARRS 1, Haleakala MPS 473624
2013 08 09.46595 22 09 42.906 -15 23 10.03 20.6 w F51 – Pan-STARRS 1, Haleakala MPS 473624
2013 08 09.48019 22 09 42.219 -15 23 13.85 20.7 w F51 – Pan-STARRS 1, Haleakala MPS 473624
2013 08 29.35900 21 53 28.139 -16 47 03.07 20.6 w F51 – Pan-STARRS 1, Haleakala MPS 474829
2013 08 29.37283 21 53 27.442 -16 47 06.10 20.7 w F51 – Pan-STARRS 1, Haleakala MPS 474829
2013 08 29.38665 21 53 26.747 -16 47 09.20 20.6 w F51 – Pan-STARRS 1, Haleakala MPS 474829
2013 08 29.40046 21 53 26.046 -16 47 12.20 20.7 w F51 – Pan-STARRS 1, Haleakala MPS 474829
2014 11 26.35405 05 06 15.445 +24 31 56.33 20.9 w F51 – Pan-STARRS 1, Haleakala MPS 551293
2014 11 26.36598 05 06 14.768 +24 31 56.40 20.7 w F51 – Pan-STARRS 1, Haleakala MPS 551293
2014 11 26.37794 05 06 14.083 +24 31 56.43 21.1 w F51 – Pan-STARRS 1, Haleakala MPS 551293
2014 11 29.33590 05 03 27.87 +24 31 15.7 19.8 V G96 – Mt. Lemmon Survey MPS 551293
2014 11 29.34208 05 03 27.48 +24 31 15.1 20.0 V G96 – Mt. Lemmon Survey MPS 551293
2014 11 29.34826 05 03 27.13 +24 31 14.9 20.1 V G96 – Mt. Lemmon Survey MPS 551293
2014 11 29.35444 05 03 26.75 +24 31 14.7 19.9 V G96 – Mt. Lemmon Survey MPS 551293
2014 12 01.33327 05 01 33.121 +24 30 33.55 20.1 i F51 – Pan-STARRS 1, Haleakala MPS 551293
2014 12 01.34522 05 01 32.400 +24 30 33.60 20.3 i F51 – Pan-STARRS 1, Haleakala MPS 551293
2014 12 01.35717 05 01 31.682 +24 30 33.30 20.3 i F51 – Pan-STARRS 1, Haleakala MPS 551293
2014 12 10.36201 04 52 40.95 +24 25 02.5 19.0 V G96 – Mt. Lemmon Survey MPS 552905
2014 12 10.36351 04 52 40.88 +24 25 03.3 19.9 V G96 – Mt. Lemmon Survey MPS 552905
2014 12 10.36663 04 52 40.73 +24 25 02.4 19.5 V G96 – Mt. Lemmon Survey MPS 552905
2014 12 10.36812 04 52 40.63 +24 25 02.9 19.8 V G96 – Mt. Lemmon Survey MPS 552905
2014 12 10.37121 04 52 40.41 +24 25 03.5 19.3 V G96 – Mt. Lemmon Survey MPS 552905
2014 12 10.37271 04 52 40.36 +24 25 02.7 19.6 V G96 – Mt. Lemmon Survey MPS 552905
2014 12 10.37731 04 52 40.04 +24 25 02.7 19.8 V G96 – Mt. Lemmon Survey MPS 552905
2014 12 27.27108 04 37 39.675 +24 08 06.70 20.3 i F51 – Pan-STARRS 1, Haleakala MPS 560818
2014 12 27.28232 04 37 39.163 +24 08 06.14 20.4 i F51 – Pan-STARRS 1, Haleakala MPS 560818
2014 12 27.29360 04 37 38.634 +24 08 05.71 20.5 i F51 – Pan-STARRS 1, Haleakala MPS 560818
2014 12 27.30485 04 37 38.092 +24 08 05.10 20.6 i F51 – Pan-STARRS 1, Haleakala MPS 560818
2016 02 05.49675 11 56 38.877 +03 37 08.96 21.9 w F51 – Pan-STARRS 1, Haleakala MPS 681964
2016 02 05.50855 11 56 38.624 +03 37 10.46 22.1 w F51 – Pan-STARRS 1, Haleakala MPS 681964
2016 02 05.52039 11 56 38.376 +03 37 12.62 21.8 w F51 – Pan-STARRS 1, Haleakala MPS 681964
2016 02 05.53228 11 56 38.140 +03 37 14.64 21.9 w F51 – Pan-STARRS 1, Haleakala MPS 681964
2016 02 09.49078 11 55 10.279 +03 48 39.60 21.8 w F51 – Pan-STARRS 1, Haleakala MPS 681964
2016 02 09.50295 11 55 09.966 +03 48 41.85 21.5 w F51 – Pan-STARRS 1, Haleakala MPS 681964
2016 02 09.51509 11 55 09.649 +03 48 43.88 21.7 w F51 – Pan-STARRS 1, Haleakala MPS 681964
2016 02 29.46143 11 43 11.003 +05 10 29.03 20.9 r F51 – Pan-STARRS 1, Haleakala MPS 689620
2016 02 29.47269 11 43 10.486 +05 10 32.20 21.0 r F51 – Pan-STARRS 1, Haleakala MPS 689620
2016 02 29.48437 11 43 09.945 +05 10 35.55 20.9 r F51 – Pan-STARRS 1, Haleakala MPS 689620
2016 02 29.49582 11 43 09.400 +05 10 38.67 20.8 r F51 – Pan-STARRS 1, Haleakala MPS 689620
2016 03 10.21671 11 35 28.49 +05 57 58.7 20.6 V G96 – Mt. Lemmon Survey MPS 692205
2016 03 10.21979 11 35 28.34 +05 58 00.7 20.3 V G96 – Mt. Lemmon Survey MPS 692205
2016 03 10.22287 11 35 28.19 +05 58 00.7 20.8 V G96 – Mt. Lemmon Survey MPS 692205
2016 03 10.22594 11 35 28.06 +05 58 01.5 21.1 V G96 – Mt. Lemmon Survey MPS 692205
